星链-37439(STARLINK-37439)

导读

STARLINK-37439(NORAD编号69377)是美国太空探索技术公司(SpaceX)星链第二代低轨通信卫星,归属星链星座第二阶段组网序列,于2026年4月由猎鹰9号火箭从美国范登堡太空军基地发射升空,属于星链2026年第二批组网发射批次。 该卫星运行在高度约480公里的近地轨道,是SpaceX2026年启动星链轨道下调计划后首批部署在新高度轨道的卫星之一,主要承担全球低延迟宽带互联网接入服务任务,当前处于在轨运行状态,预计服务寿命5年,失效后将在数月内自然再入大气层烧毁,降低空间碎片风险。

Basic Information
目录编号:
69377
目录名称:
STARLINK-37439
国际标识:
2026-123AA
轨道中心:
EARTH
卫星名称:
星链-37439
卫星全名:
星链-37439(STARLINK-37439)
卫星状态:
在轨 (已飞行92 天)
发射日期:
2026-06-04 UTC
国别 :
美国 (US)
星等 :
--
Orbit Information
数据来源 国际轨道数据
星历时间: 2026-09-03T16:21:52+0800
1天前
查看轨道信息
半长轴: 6837.806km
偏心率: 0.0000452
轨道倾角: 53.158°
近地点辐角 78.584°
升交点赤经 222.110°
平近点角 281.521°
近地点: 459.359km
远地点: 459.979km
周期: 93.785分钟
每日圈数: 15.354217
Detailed Information
固有亮度:
5
最大亮度:
2.5
卫星平台:
Starlink V1.0
覆盖范围:
全球
运营商:
太空探索技术公司
运营商所在国:
美国
制造商(研发单位):
太空探索技术公司
制造商所在国:
美国
使用方式:
暂无
Satellite Introduction
Starlink 计划是 SpaceX 推出的全球卫星互联网项目,通过发射低轨道卫星,为全球尤其是偏远地区提供高速、低延迟的互联网服务。自 2019 年起,Starlink 已部署数千颗卫星,旨在缩小全球数字鸿沟,推动互联网普及。该项目还为军事、航空等行业提供通信支持,带来广泛经济效益。
2D Orbit Map
3D Orbit Map
Orbit Altitude Analysis Chart
Orbit Inclination Analysis Chart
Orbit Comprehensive Analysis Chart
View Comprehensive Chart
Conjunction Data List
Event ID Objects TCA Miss Dist (km) Collision Risk Probability Collision Risk Index (CRI) Action
CDM_260905-200905-177706-937721
2026-09-05T
20:09:20+0000
0.260 km
中距离
3.297883E-4 高风险 0.85
CDM_260905-134406-431506-937721
2026-09-05T
13:44:36+0000
2.234 km
极远距离
1.850259E-6 低风险 0.4
CDM_260906-024706-937706-983721
2026-09-06T
02:47:19+0000
2.657 km
极远距离
1.413712E-6 低风险 0.38
CDM_260827-233006-541506-937721
2026-08-27T
23:30:27+0000
2.759 km
极远距离
1.131986E-6 低风险 0.36
CDM_260905-222905-177706-937721
2026-09-05T
22:29:55+0000
2.275 km
极远距离
8.63423E-7 极低风险 0.34
CDM_260906-000305-177706-937721
2026-09-06T
00:03:39+0000
2.468 km
极远距离
7.49195E-7 极低风险 0.32